Location: Binningen
(47.7924°N, 8.7261°E)
Time: 20:37:53
(UTC+00:00)

Cosmos 2184 Rocket - Pass Details

Date: 17 May 2021
Orbit: 958 x 1003 km, 82.9° (Epoch: 20 June)

Event Time Altitude Azimuth Distance (km) Brightness Sun altitude
Rises 20:15:31 0° 350° (N) 3,675 8.0 -10.9°
Reaches altitude 10° 20:18:02 10° 351° (N) 2,718 7.2 -11.1°
Maximum altitude 20:24:16 90° 272° (W) 969 4.0 -11.9°
Enters shadow 20:30:24 10° 173° (S) 2,678 5.8 -12.5°
